Tracking 18850 objects as of 22-Nov-2017
HD Live streaming from Space Station
objects crossing your sky now

COSMOS 976

Track COSMOS 976 now!
10-day predictions
COSMOS 976 is classified as:


NORAD ID: 10581
Int'l Code: 1978-005A
Perigee: 1,462.7 km
Apogee: 1,470.1 km
Inclination: 74.0 °
Period: 115.1 minutes
Semi major axis: 7837 km
RCS: 0.678 m2 (medium)
Launch date: January 10, 1978
Source: Commonwealth of Independent States (former USSR) (CIS)
Launch site: PLESETSK MISSILE AND SPACE COMPLEX (PKMTR)
aabbcc
Your satellite tracking list
Your tracking list is empty




NASA's NSSDC Master Catalog

Two Line Element Set (TLE):
1 10581U 78005A   17325.92200878 -.00000030 +00000-0 -94024-4 0  9997
2 10581 074.0285 122.8813 0004732 110.0437 003.3957 12.51249575813594
Source of the keplerian elements: AFSPC